sat.trackr.live / text

‹ back to catalog

ICEYE-X67

NORAD 66302 · 2025-248K

PAYLOAD ACTIVE UNKNOWN

§ Identity

Operator
Country
UAE
Launch date
2025-11-02
Launch site
AFETR
Launch vehicle
Mass (kg)
RCS (m²)

External: N2YO · Heavens-Above · Gunter

§ Orbital elements

Epoch: 2026-05-25T00:30:45.885024Z

Period
95.44 min
Inclination
45.4050°
Eccentricity
0.0007617
Mean motion
15.08838177 rev/d
Perigee alt
534.5 km
Apogee alt
545.0 km
Semi-major
6,917.9 km
B*
2.4875e-4
RAAN
255.1199°
Arg perigee
262.8934°
Mean anomaly
97.1082°
Rev number
3,202

§ Raw data

ICEYE-X671 66302U 25248K   26145.02136441  .00003729  00000+0  24875-3 0  99962 66302  45.4050 255.1199 0007617 262.8934  97.1082 15.08838177 32026

JSON: /api/v1/satellites/66302 · /tle

For live sub-satellite position, see the globe view (requires WebGL).

§ Visibility from observer

Set your observer location to see the next 7 days of passes ≥ 10°. The values pass through the URL so the page stays shareable.

No JS? Fill the form by hand. The geolocation button needs JavaScript.